Location: Lane
(33.5226°N, 79.8788°W)
Time: 05:28:52
(UTC+00:00)

Vanguard 2 - Pass Details

Date: 04 October 2022
Orbit: 553 x 2933 km, 32.9° (Epoch: 26 November)

Event Time Altitude Azimuth Distance (km) Brightness Sun altitude
Rises 21:24:10 0° 279° (W) 5,585 13.0 18.7°
Reaches altitude 10° 21:27:22 10° 278° (W) 4,838 12.9 18.0°
Maximum altitude 21:42:28 79° 195° (SSW) 2,873 10.8 15.0°
Drops below altitude 10° 22:00:27 10° 112° (ESE) 5,624 11.5 11.4°
Sets 22:04:32 0° 111° (ESE) 6,493 11.7 10.6°
